Year,Month,Day,Hour,Minute,Value (Times are PST for temperature in C)
2015,06,27,00,00,22.30
2015,06,27,00,01,22.30
2015,06,27,00,02,22.30
2015,06,27,00,03,22.20
2015,06,27,00,04,22.20
2015,06,27,00,05,22.10
2015,06,27,00,06,22.10
2015,06,27,00,07,22.00
2015,06,27,00,08,22.00
2015,06,27,00,09,21.90
2015,06,27,00,10,21.90
2015,06,27,00,11,21.90
2015,06,27,00,12,21.90
2015,06,27,00,13,21.90
2015,06,27,00,14,21.90
2015,06,27,00,15,21.90
2015,06,27,00,16,21.90
2015,06,27,00,17,21.90
2015,06,27,00,18,21.90
2015,06,27,00,19,22.00
2015,06,27,00,20,22.00
2015,06,27,00,21,22.10
2015,06,27,00,22,22.10
2015,06,27,00,23,22.10
2015,06,27,00,24,22.10
2015,06,27,00,25,22.10
2015,06,27,00,26,22.00
2015,06,27,00,27,22.00
2015,06,27,00,28,22.00
2015,06,27,00,29,22.00
2015,06,27,00,30,21.90
2015,06,27,00,31,21.90
2015,06,27,00,32,21.90
2015,06,27,00,33,21.90
2015,06,27,00,34,21.80
2015,06,27,00,35,21.80
2015,06,27,00,36,21.80
2015,06,27,00,37,21.70
2015,06,27,00,38,21.70
2015,06,27,00,39,21.60
2015,06,27,00,40,21.60
2015,06,27,00,41,21.50
2015,06,27,00,42,21.50
2015,06,27,00,43,21.40
2015,06,27,00,44,21.40
2015,06,27,00,45,21.30
2015,06,27,00,46,21.20
2015,06,27,00,47,21.20
2015,06,27,00,48,21.10
2015,06,27,00,49,21.00
2015,06,27,00,50,20.90
2015,06,27,00,51,20.80
2015,06,27,00,52,20.80
2015,06,27,00,53,20.70
2015,06,27,00,54,20.60
2015,06,27,00,55,20.60
2015,06,27,00,56,20.50
2015,06,27,00,57,20.40
2015,06,27,00,58,20.40
2015,06,27,00,59,20.30
2015,06,27,01,00,20.30
2015,06,27,01,01,20.30
2015,06,27,01,02,20.30
2015,06,27,01,03,20.20
2015,06,27,01,04,20.20
2015,06,27,01,05,20.20
2015,06,27,01,06,20.20
2015,06,27,01,07,20.10
2015,06,27,01,08,20.10
2015,06,27,01,09,20.10
2015,06,27,01,10,20.10
2015,06,27,01,11,20.10
2015,06,27,01,12,20.10
2015,06,27,01,13,20.10
2015,06,27,01,14,20.10
2015,06,27,01,15,20.10
2015,06,27,01,16,20.10
2015,06,27,01,17,20.10
2015,06,27,01,18,20.00
2015,06,27,01,19,20.00
2015,06,27,01,20,19.90
2015,06,27,01,21,19.90
2015,06,27,01,22,19.80
2015,06,27,01,23,19.80
2015,06,27,01,24,19.70
2015,06,27,01,25,19.60
2015,06,27,01,26,19.60
2015,06,27,01,27,19.50
2015,06,27,01,28,19.40
2015,06,27,01,29,19.40
2015,06,27,01,30,19.30
2015,06,27,01,31,19.30
2015,06,27,01,32,19.30
2015,06,27,01,33,19.30
2015,06,27,01,34,19.30
2015,06,27,01,35,19.30
2015,06,27,01,36,19.30
2015,06,27,01,37,19.30
2015,06,27,01,38,19.30
2015,06,27,01,39,19.30
2015,06,27,01,40,19.30
2015,06,27,01,41,19.30
2015,06,27,01,42,19.30
2015,06,27,01,43,19.30
2015,06,27,01,44,19.30
2015,06,27,01,45,19.20
2015,06,27,01,46,19.10
2015,06,27,01,47,19.00
2015,06,27,01,48,18.90
2015,06,27,01,49,18.90
2015,06,27,01,50,18.80
2015,06,27,01,51,18.70
2015,06,27,01,52,18.70
2015,06,27,01,53,18.60
2015,06,27,01,54,18.50
2015,06,27,01,55,18.50
2015,06,27,01,56,18.50
2015,06,27,01,57,18.40
2015,06,27,01,58,18.40
2015,06,27,01,59,18.30
2015,06,27,02,00,18.20
2015,06,27,02,01,18.20
2015,06,27,02,02,18.20
2015,06,27,02,03,18.20
2015,06,27,02,04,18.20
2015,06,27,02,05,18.20
2015,06,27,02,06,18.10
2015,06,27,02,07,18.10
2015,06,27,02,08,18.10
2015,06,27,02,09,18.10
2015,06,27,02,10,18.10
2015,06,27,02,11,18.00
2015,06,27,02,12,18.00
2015,06,27,02,13,18.00
2015,06,27,02,14,17.90
2015,06,27,02,15,17.80
2015,06,27,02,16,17.80
2015,06,27,02,17,17.80
2015,06,27,02,18,17.80
2015,06,27,02,19,17.80
2015,06,27,02,20,17.80
2015,06,27,02,21,17.80
2015,06,27,02,22,17.80
2015,06,27,02,23,17.70
2015,06,27,02,24,17.70
2015,06,27,02,25,17.70
2015,06,27,02,26,17.70
2015,06,27,02,27,17.70
2015,06,27,02,28,17.60
2015,06,27,02,29,17.60
2015,06,27,02,30,17.60
2015,06,27,02,31,17.60
2015,06,27,02,32,17.50
2015,06,27,02,33,17.50
2015,06,27,02,34,17.40
2015,06,27,02,35,17.40
2015,06,27,02,36,17.40
2015,06,27,02,37,17.40
2015,06,27,02,38,17.30
2015,06,27,02,39,17.30
2015,06,27,02,40,17.30
2015,06,27,02,41,17.30
2015,06,27,02,42,17.30
2015,06,27,02,43,17.30
2015,06,27,02,44,17.30
2015,06,27,02,45,17.30
2015,06,27,02,46,17.20
2015,06,27,02,47,17.20
2015,06,27,02,48,17.20
2015,06,27,02,49,17.20
2015,06,27,02,50,17.20
2015,06,27,02,51,17.20
2015,06,27,02,52,17.20
2015,06,27,02,53,17.20
2015,06,27,02,54,17.20
2015,06,27,02,55,17.20
2015,06,27,02,56,17.20
2015,06,27,02,57,17.20
2015,06,27,02,58,17.10
2015,06,27,02,59,17.10
2015,06,27,03,00,17.10
2015,06,27,03,01,17.10
2015,06,27,03,02,17.10
2015,06,27,03,03,17.10
2015,06,27,03,04,17.00
2015,06,27,03,05,17.00
2015,06,27,03,06,17.00
2015,06,27,03,07,17.00
2015,06,27,03,08,16.90
2015,06,27,03,09,16.90
2015,06,27,03,10,16.90
2015,06,27,03,11,16.90
2015,06,27,03,12,16.80
2015,06,27,03,13,16.80
2015,06,27,03,14,16.80
2015,06,27,03,15,16.80
2015,06,27,03,16,16.80
2015,06,27,03,17,16.80
2015,06,27,03,18,16.80
2015,06,27,03,19,16.90
2015,06,27,03,20,16.90
2015,06,27,03,21,16.90
2015,06,27,03,22,16.90
2015,06,27,03,23,17.00
2015,06,27,03,24,16.90
2015,06,27,03,25,16.90
2015,06,27,03,26,16.80
2015,06,27,03,27,16.80
2015,06,27,03,28,16.70
2015,06,27,03,29,16.70
2015,06,27,03,30,16.60
2015,06,27,03,31,16.60
2015,06,27,03,32,16.50
2015,06,27,03,33,16.50
2015,06,27,03,34,16.40
2015,06,27,03,35,16.40
2015,06,27,03,36,16.40
2015,06,27,03,37,16.40
2015,06,27,03,38,16.40
2015,06,27,03,39,16.40
2015,06,27,03,40,16.40
2015,06,27,03,41,16.30
2015,06,27,03,42,16.30
2015,06,27,03,43,16.30
2015,06,27,03,44,16.30
2015,06,27,03,45,16.30
2015,06,27,03,46,16.40
2015,06,27,03,47,16.40
2015,06,27,03,48,16.40
2015,06,27,03,49,16.40
2015,06,27,03,50,16.50
2015,06,27,03,51,16.50
2015,06,27,03,52,16.50
2015,06,27,03,53,16.40
2015,06,27,03,54,16.40
2015,06,27,03,55,16.40
2015,06,27,03,56,16.30
2015,06,27,03,57,16.30
2015,06,27,03,58,16.30
2015,06,27,03,59,16.30
2015,06,27,04,00,16.30
2015,06,27,04,01,16.30
2015,06,27,04,02,16.30
2015,06,27,04,03,16.40
2015,06,27,04,04,16.40
2015,06,27,04,05,16.50
2015,06,27,04,06,16.60
2015,06,27,04,07,16.70
2015,06,27,04,08,16.80
2015,06,27,04,09,16.90
2015,06,27,04,10,17.10
2015,06,27,04,11,17.30
2015,06,27,04,12,17.40
2015,06,27,04,13,17.60
2015,06,27,04,14,17.70
2015,06,27,04,15,17.80
2015,06,27,04,16,17.90
2015,06,27,04,17,18.00
2015,06,27,04,18,18.00
2015,06,27,04,19,18.10
2015,06,27,04,20,18.10
2015,06,27,04,21,18.20
2015,06,27,04,22,18.20
2015,06,27,04,23,18.20
2015,06,27,04,24,18.30
2015,06,27,04,25,18.30
2015,06,27,04,26,18.40
2015,06,27,04,27,18.40
2015,06,27,04,28,18.40
2015,06,27,04,29,18.40
2015,06,27,04,30,18.40
2015,06,27,04,31,18.40
2015,06,27,04,32,18.40
2015,06,27,04,33,18.30
2015,06,27,04,34,18.30
2015,06,27,04,35,18.30
2015,06,27,04,36,18.30
2015,06,27,04,37,18.30
2015,06,27,04,38,18.30
2015,06,27,04,39,18.30
2015,06,27,04,40,18.30
2015,06,27,04,41,18.30
2015,06,27,04,42,18.30
2015,06,27,04,43,18.30
2015,06,27,04,44,18.30
2015,06,27,04,45,18.30
2015,06,27,04,46,18.30
2015,06,27,04,47,18.30
2015,06,27,04,48,18.30
2015,06,27,04,49,18.30
2015,06,27,04,50,18.20
2015,06,27,04,51,18.10
2015,06,27,04,52,18.10
2015,06,27,04,53,18.00
2015,06,27,04,54,17.90
2015,06,27,04,55,17.80
2015,06,27,04,56,17.70
2015,06,27,04,57,17.70
2015,06,27,04,58,17.60
2015,06,27,04,59,17.60
2015,06,27,05,00,17.60
2015,06,27,05,01,17.60
2015,06,27,05,02,17.70
2015,06,27,05,03,17.70
2015,06,27,05,04,17.70
2015,06,27,05,05,17.70
2015,06,27,05,06,17.70
2015,06,27,05,07,17.70
2015,06,27,05,08,17.70
2015,06,27,05,09,17.70
2015,06,27,05,10,17.70
2015,06,27,05,11,17.60
2015,06,27,05,12,17.60
2015,06,27,05,13,17.60
2015,06,27,05,14,17.60
2015,06,27,05,15,17.60
2015,06,27,05,16,17.60
2015,06,27,05,17,17.60
2015,06,27,05,18,17.60
2015,06,27,05,19,17.60
2015,06,27,05,20,17.60
2015,06,27,05,21,17.50
2015,06,27,05,22,17.50
2015,06,27,05,23,17.50
2015,06,27,05,24,17.50
2015,06,27,05,25,17.50
2015,06,27,05,26,17.50
2015,06,27,05,27,17.40
2015,06,27,05,28,17.40
2015,06,27,05,29,17.40
2015,06,27,05,30,17.30
2015,06,27,05,31,17.30
2015,06,27,05,32,17.20
2015,06,27,05,33,17.20
2015,06,27,05,34,17.20
2015,06,27,05,35,17.10
2015,06,27,05,36,17.10
2015,06,27,05,37,17.10
2015,06,27,05,38,17.10
2015,06,27,05,39,17.10
2015,06,27,05,40,17.00
2015,06,27,05,41,17.00
2015,06,27,05,42,17.00
2015,06,27,05,43,17.00
2015,06,27,05,44,17.00
2015,06,27,05,45,17.00
2015,06,27,05,46,17.10
2015,06,27,05,47,17.10
2015,06,27,05,48,17.10
2015,06,27,05,49,17.10
2015,06,27,05,50,17.10
2015,06,27,05,51,17.10
2015,06,27,05,52,17.10
2015,06,27,05,53,17.10
2015,06,27,05,54,17.10
2015,06,27,05,55,17.10
2015,06,27,05,56,17.10
2015,06,27,05,57,17.10
2015,06,27,05,58,17.10
2015,06,27,05,59,17.10
2015,06,27,06,00,17.10
2015,06,27,06,01,17.10
2015,06,27,06,02,17.10
2015,06,27,06,03,17.20
2015,06,27,06,04,17.20
2015,06,27,06,05,17.30
2015,06,27,06,06,17.30
2015,06,27,06,07,17.30
2015,06,27,06,08,17.40
2015,06,27,06,09,17.40
2015,06,27,06,10,17.50
2015,06,27,06,11,17.50
2015,06,27,06,12,17.60
2015,06,27,06,13,17.70
2015,06,27,06,14,17.70
2015,06,27,06,15,17.80
2015,06,27,06,16,17.80
2015,06,27,06,17,17.80
2015,06,27,06,18,17.90
2015,06,27,06,19,17.90
2015,06,27,06,20,17.90
2015,06,27,06,21,18.00
2015,06,27,06,22,18.00
2015,06,27,06,23,18.10
2015,06,27,06,24,18.10
2015,06,27,06,25,18.20
2015,06,27,06,26,18.20
2015,06,27,06,27,18.30
2015,06,27,06,28,18.30
2015,06,27,06,29,18.40
2015,06,27,06,30,18.40
2015,06,27,06,31,18.50
2015,06,27,06,32,18.60
2015,06,27,06,33,18.60
2015,06,27,06,34,18.70
2015,06,27,06,35,18.70
2015,06,27,06,36,18.70
2015,06,27,06,37,18.80
2015,06,27,06,38,18.80
2015,06,27,06,39,18.80
2015,06,27,06,40,18.90
2015,06,27,06,41,18.90
2015,06,27,06,42,18.90
2015,06,27,06,43,18.90
2015,06,27,06,44,19.00
2015,06,27,06,45,19.00
2015,06,27,06,46,19.00
2015,06,27,06,47,19.00
2015,06,27,06,48,19.00
2015,06,27,06,49,19.00
2015,06,27,06,50,19.00
2015,06,27,06,51,19.00
2015,06,27,06,52,19.10
2015,06,27,06,53,19.10
2015,06,27,06,54,19.10
2015,06,27,06,55,19.10
2015,06,27,06,56,19.10
2015,06,27,06,57,19.10
2015,06,27,06,58,19.10
2015,06,27,06,59,19.10
2015,06,27,07,00,19.10
2015,06,27,07,01,19.10
2015,06,27,07,02,19.10
2015,06,27,07,03,19.10
2015,06,27,07,04,19.10
2015,06,27,07,05,19.10
2015,06,27,07,06,19.10
2015,06,27,07,07,19.10
2015,06,27,07,08,19.10
2015,06,27,07,09,19.10
2015,06,27,07,10,19.10
2015,06,27,07,11,19.10
2015,06,27,07,12,19.10
2015,06,27,07,13,19.10
2015,06,27,07,14,19.10
2015,06,27,07,15,19.10
2015,06,27,07,16,19.10
2015,06,27,07,17,19.10
2015,06,27,07,18,19.10
2015,06,27,07,19,19.10
2015,06,27,07,20,19.10
2015,06,27,07,21,19.10
2015,06,27,07,22,19.10
2015,06,27,07,23,19.00
2015,06,27,07,24,19.00
2015,06,27,07,25,19.00
2015,06,27,07,26,19.00
2015,06,27,07,27,19.00
2015,06,27,07,28,19.00
2015,06,27,07,29,19.00
2015,06,27,07,30,19.00
2015,06,27,07,31,19.00
2015,06,27,07,32,19.10
2015,06,27,07,33,19.10
2015,06,27,07,34,19.20
2015,06,27,07,35,19.20
2015,06,27,07,36,19.20
2015,06,27,07,37,19.20
2015,06,27,07,38,19.20
2015,06,27,07,39,19.20
2015,06,27,07,40,19.20
2015,06,27,07,41,19.20
2015,06,27,07,42,19.20
2015,06,27,07,43,19.20
2015,06,27,07,44,19.20
2015,06,27,07,45,19.30
2015,06,27,07,46,19.30
2015,06,27,07,47,19.30
2015,06,27,07,48,19.30
2015,06,27,07,49,19.30
2015,06,27,07,50,19.30
2015,06,27,07,51,19.30
2015,06,27,07,52,19.30
2015,06,27,07,53,19.40
2015,06,27,07,54,19.40
2015,06,27,07,55,19.40
2015,06,27,07,56,19.40
2015,06,27,07,57,19.40
2015,06,27,07,58,19.40
2015,06,27,07,59,19.50
2015,06,27,08,00,19.50
2015,06,27,08,01,19.50
2015,06,27,08,02,19.60
2015,06,27,08,03,19.60
2015,06,27,08,04,19.70
2015,06,27,08,05,19.70
2015,06,27,08,06,19.70
2015,06,27,08,07,19.80
2015,06,27,08,08,19.80
2015,06,27,08,09,19.80
2015,06,27,08,10,19.80
2015,06,27,08,11,19.90
2015,06,27,08,12,19.90
2015,06,27,08,13,19.90
2015,06,27,08,14,19.90
2015,06,27,08,15,19.90
2015,06,27,08,16,20.00
2015,06,27,08,17,20.00
2015,06,27,08,18,20.00
2015,06,27,08,19,20.00
2015,06,27,08,20,19.90
2015,06,27,08,21,19.90
2015,06,27,08,22,19.90
2015,06,27,08,23,19.90
2015,06,27,08,24,19.90
2015,06,27,08,25,19.80
2015,06,27,08,26,19.80
2015,06,27,08,27,19.80
2015,06,27,08,28,19.80
2015,06,27,08,29,19.80
2015,06,27,08,30,19.80
2015,06,27,08,31,19.80
2015,06,27,08,32,19.80
2015,06,27,08,33,19.80
2015,06,27,08,34,19.80
2015,06,27,08,35,19.80
2015,06,27,08,36,19.80
2015,06,27,08,37,19.80
2015,06,27,08,38,19.80
2015,06,27,08,39,19.80
2015,06,27,08,40,19.80
2015,06,27,08,41,19.90
2015,06,27,08,42,19.90
2015,06,27,08,43,19.90
2015,06,27,08,44,19.90
2015,06,27,08,45,19.90
2015,06,27,08,46,19.90
2015,06,27,08,47,19.90
2015,06,27,08,48,19.90
2015,06,27,08,49,20.00
2015,06,27,08,50,20.00
2015,06,27,08,51,20.00
2015,06,27,08,52,20.10
2015,06,27,08,53,20.10
2015,06,27,08,54,20.20
2015,06,27,08,55,20.20
2015,06,27,08,56,20.30
2015,06,27,08,57,20.30
2015,06,27,08,58,20.30
2015,06,27,08,59,20.40
2015,06,27,09,00,20.40
2015,06,27,09,01,20.50
2015,06,27,09,02,20.50
2015,06,27,09,03,20.60
2015,06,27,09,04,20.60
2015,06,27,09,05,20.60
2015,06,27,09,06,20.70
2015,06,27,09,07,20.70
2015,06,27,09,08,20.70
2015,06,27,09,09,20.80
2015,06,27,09,10,20.80
2015,06,27,09,11,20.90
2015,06,27,09,12,21.00
2015,06,27,09,13,21.00
2015,06,27,09,14,21.10
2015,06,27,09,15,21.20
2015,06,27,09,16,21.30
2015,06,27,09,17,21.30
2015,06,27,09,18,21.40
2015,06,27,09,19,21.50
2015,06,27,09,20,21.50
2015,06,27,09,21,21.60
2015,06,27,09,22,21.60
2015,06,27,09,23,21.60
2015,06,27,09,24,21.60
2015,06,27,09,25,21.50
2015,06,27,09,26,21.40
2015,06,27,09,27,21.40
2015,06,27,09,28,21.30
2015,06,27,09,29,21.30
2015,06,27,09,30,21.30
2015,06,27,09,31,21.30
2015,06,27,09,32,21.40
2015,06,27,09,33,21.40
2015,06,27,09,34,21.40
2015,06,27,09,35,21.50
2015,06,27,09,36,21.50
2015,06,27,09,37,21.50
2015,06,27,09,38,21.60
2015,06,27,09,39,21.60
2015,06,27,09,40,21.60
2015,06,27,09,41,21.70
2015,06,27,09,42,21.80
2015,06,27,09,43,21.80
2015,06,27,09,44,21.90
2015,06,27,09,45,21.90
2015,06,27,09,46,21.90
2015,06,27,09,47,21.90
2015,06,27,09,48,21.90
2015,06,27,09,49,21.90
2015,06,27,09,50,21.90
2015,06,27,09,51,21.90
2015,06,27,09,52,21.80
2015,06,27,09,53,21.70
2015,06,27,09,54,21.60
2015,06,27,09,55,21.60
2015,06,27,09,56,21.60
2015,06,27,09,57,21.60
2015,06,27,09,58,21.70
2015,06,27,09,59,21.70
2015,06,27,10,00,21.70
2015,06,27,10,01,21.60
2015,06,27,10,02,21.60
2015,06,27,10,03,21.70
2015,06,27,10,04,21.70
2015,06,27,10,05,21.70
2015,06,27,10,06,21.80
2015,06,27,10,07,21.80
2015,06,27,10,08,21.80
2015,06,27,10,09,21.90
2015,06,27,10,10,21.90
2015,06,27,10,11,21.90
2015,06,27,10,12,22.00
2015,06,27,10,13,22.00
2015,06,27,10,14,22.10
2015,06,27,10,15,22.10
2015,06,27,10,16,22.20
2015,06,27,10,17,22.30
2015,06,27,10,18,22.30
2015,06,27,10,19,22.40
2015,06,27,10,20,22.40
2015,06,27,10,21,22.40
2015,06,27,10,22,22.40
2015,06,27,10,23,22.40
2015,06,27,10,24,22.50
2015,06,27,10,25,22.50
2015,06,27,10,26,22.60
2015,06,27,10,27,22.60
2015,06,27,10,28,22.60
2015,06,27,10,29,22.70
2015,06,27,10,30,22.80
2015,06,27,10,31,22.80
2015,06,27,10,32,22.90
2015,06,27,10,33,22.90
2015,06,27,10,34,22.90
2015,06,27,10,35,22.90
2015,06,27,10,36,23.00
2015,06,27,10,37,23.00
2015,06,27,10,38,23.00
2015,06,27,10,39,23.10
2015,06,27,10,40,23.10
2015,06,27,10,41,23.10
2015,06,27,10,42,23.10
2015,06,27,10,43,23.20
2015,06,27,10,44,23.20
2015,06,27,10,45,23.20
2015,06,27,10,46,23.20
2015,06,27,10,47,23.20
2015,06,27,10,48,23.30
2015,06,27,10,49,23.30
2015,06,27,10,50,23.30
2015,06,27,10,51,23.30
2015,06,27,10,52,23.30
2015,06,27,10,53,23.40
2015,06,27,10,54,23.40
2015,06,27,10,55,23.30
2015,06,27,10,56,23.30
2015,06,27,10,57,23.30
2015,06,27,10,58,23.30
2015,06,27,10,59,23.30
2015,06,27,11,00,23.30
2015,06,27,11,01,23.30
2015,06,27,11,02,23.40
2015,06,27,11,03,23.40
2015,06,27,11,04,23.40
2015,06,27,11,05,23.50
2015,06,27,11,06,23.40
2015,06,27,11,07,23.50
2015,06,27,11,08,23.50
2015,06,27,11,09,23.50
2015,06,27,11,10,23.50
2015,06,27,11,11,23.50
2015,06,27,11,12,23.50
2015,06,27,11,13,23.50
2015,06,27,11,14,23.60
2015,06,27,11,15,23.70
2015,06,27,11,16,23.80
2015,06,27,11,17,23.80
2015,06,27,11,18,23.90
2015,06,27,11,19,24.00
2015,06,27,11,20,24.00
2015,06,27,11,21,24.10
2015,06,27,11,22,24.10
2015,06,27,11,23,24.20
2015,06,27,11,24,24.20
2015,06,27,11,25,24.30
2015,06,27,11,26,24.30
2015,06,27,11,27,24.30
2015,06,27,11,28,24.40
2015,06,27,11,29,24.40
2015,06,27,11,30,24.50
2015,06,27,11,31,24.60
2015,06,27,11,32,24.70
2015,06,27,11,33,24.70
2015,06,27,11,34,24.70
2015,06,27,11,35,24.70
2015,06,27,11,36,24.60
2015,06,27,11,37,24.60
2015,06,27,11,38,24.60
2015,06,27,11,39,24.70
2015,06,27,11,40,24.70
2015,06,27,11,41,24.70
2015,06,27,11,42,24.70
2015,06,27,11,43,24.70
2015,06,27,11,44,24.70
2015,06,27,11,45,24.70
2015,06,27,11,46,24.70
2015,06,27,11,47,24.80
2015,06,27,11,48,24.80
2015,06,27,11,49,24.80
2015,06,27,11,50,24.90
2015,06,27,11,51,25.00
2015,06,27,11,52,25.00
2015,06,27,11,53,25.00
2015,06,27,11,54,25.10
2015,06,27,11,55,25.10
2015,06,27,11,56,25.10
2015,06,27,11,57,25.20
2015,06,27,11,58,25.30
2015,06,27,11,59,25.30
2015,06,27,12,00,25.30
2015,06,27,12,01,25.40
2015,06,27,12,02,25.50
2015,06,27,12,03,25.60
2015,06,27,12,04,25.60
2015,06,27,12,05,25.60
2015,06,27,12,06,25.60
2015,06,27,12,07,25.60
2015,06,27,12,08,25.50
2015,06,27,12,09,25.50
2015,06,27,12,10,25.50
2015,06,27,12,11,25.60
2015,06,27,12,12,25.60
2015,06,27,12,13,25.70
2015,06,27,12,14,25.70
2015,06,27,12,15,25.70
2015,06,27,12,16,25.80
2015,06,27,12,17,25.80
2015,06,27,12,18,25.90
2015,06,27,12,19,26.00
2015,06,27,12,20,26.10
2015,06,27,12,21,26.10
2015,06,27,12,22,26.10
2015,06,27,12,23,26.10
2015,06,27,12,24,26.20
2015,06,27,12,25,26.20
2015,06,27,12,26,26.20
2015,06,27,12,27,26.10
2015,06,27,12,28,26.10
2015,06,27,12,29,26.00
2015,06,27,12,30,26.10
2015,06,27,12,31,26.10
2015,06,27,12,32,26.20
2015,06,27,12,33,26.30
2015,06,27,12,34,26.40
2015,06,27,12,35,26.50
2015,06,27,12,36,26.60
2015,06,27,12,37,26.70
2015,06,27,12,38,26.80
2015,06,27,12,39,26.90
2015,06,27,12,40,26.90
2015,06,27,12,41,27.00
2015,06,27,12,42,27.10
2015,06,27,12,43,27.10
2015,06,27,12,44,27.10
2015,06,27,12,45,27.10
2015,06,27,12,46,27.10
2015,06,27,12,47,27.10
2015,06,27,12,48,27.10
2015,06,27,12,49,27.20
2015,06,27,12,50,27.20
2015,06,27,12,51,27.10
2015,06,27,12,52,27.10
2015,06,27,12,53,27.20
2015,06,27,12,54,27.30
2015,06,27,12,55,27.40
2015,06,27,12,56,27.50
2015,06,27,12,57,27.50
2015,06,27,12,58,27.40
2015,06,27,12,59,27.40
2015,06,27,13,00,27.40
2015,06,27,13,01,27.40
2015,06,27,13,02,27.40
2015,06,27,13,03,27.40
2015,06,27,13,04,27.30
2015,06,27,13,05,27.30
2015,06,27,13,06,27.40
2015,06,27,13,07,27.50
2015,06,27,13,08,27.60
2015,06,27,13,09,27.60
2015,06,27,13,10,27.60
2015,06,27,13,11,27.60
2015,06,27,13,12,27.70
2015,06,27,13,13,27.80
2015,06,27,13,14,27.90
2015,06,27,13,15,28.00
2015,06,27,13,16,28.10
2015,06,27,13,17,28.20
2015,06,27,13,18,28.20
2015,06,27,13,19,28.20
2015,06,27,13,20,28.10
2015,06,27,13,21,28.10
2015,06,27,13,22,28.10
2015,06,27,13,23,28.10
2015,06,27,13,24,28.00
2015,06,27,13,25,27.90
2015,06,27,13,26,28.00
2015,06,27,13,27,28.10
2015,06,27,13,28,28.10
2015,06,27,13,29,28.20
2015,06,27,13,30,28.30
2015,06,27,13,31,28.40
2015,06,27,13,32,28.40
2015,06,27,13,33,28.30
2015,06,27,13,34,28.20
2015,06,27,13,35,28.20
2015,06,27,13,36,28.30
2015,06,27,13,37,28.30
2015,06,27,13,38,28.20
2015,06,27,13,39,28.20
2015,06,27,13,40,28.10
2015,06,27,13,41,28.00
2015,06,27,13,42,28.00
2015,06,27,13,43,28.00
2015,06,27,13,44,28.00
2015,06,27,13,45,27.90
2015,06,27,13,46,27.80
2015,06,27,13,47,27.70
2015,06,27,13,48,27.60
2015,06,27,13,49,27.60
2015,06,27,13,50,27.40
2015,06,27,13,51,27.30
2015,06,27,13,52,27.20
2015,06,27,13,53,27.10
2015,06,27,13,54,27.00
2015,06,27,13,55,26.90
2015,06,27,13,56,26.80
2015,06,27,13,57,26.70
2015,06,27,13,58,26.60
2015,06,27,13,59,26.60
2015,06,27,14,00,26.60
2015,06,27,14,01,26.60
2015,06,27,14,02,26.60
2015,06,27,14,03,26.50
2015,06,27,14,04,26.60
2015,06,27,14,05,26.60
2015,06,27,14,06,26.60
2015,06,27,14,07,26.50
2015,06,27,14,08,26.60
2015,06,27,14,09,26.60
2015,06,27,14,10,26.60
2015,06,27,14,11,26.50
2015,06,27,14,12,26.50
2015,06,27,14,13,26.40
2015,06,27,14,14,26.40
2015,06,27,14,15,26.40
2015,06,27,14,16,26.40
2015,06,27,14,17,26.40
2015,06,27,14,18,26.30
2015,06,27,14,19,26.30
2015,06,27,14,20,26.30
2015,06,27,14,21,26.40
2015,06,27,14,22,26.40
2015,06,27,14,23,26.50
2015,06,27,14,24,26.60
2015,06,27,14,25,26.70
2015,06,27,14,26,26.80
2015,06,27,14,27,26.90
2015,06,27,14,28,27.00
2015,06,27,14,29,27.10
2015,06,27,14,30,27.30
2015,06,27,14,31,27.50
2015,06,27,14,32,27.60
2015,06,27,14,33,27.70
2015,06,27,14,34,27.70
2015,06,27,14,35,27.80
2015,06,27,14,36,27.80
2015,06,27,14,37,27.90
2015,06,27,14,38,28.00
2015,06,27,14,39,28.10
2015,06,27,14,40,28.20
2015,06,27,14,41,28.20
2015,06,27,14,42,28.10
2015,06,27,14,43,28.10
2015,06,27,14,44,28.20
2015,06,27,14,45,28.20
2015,06,27,14,46,28.20
2015,06,27,14,47,28.30
2015,06,27,14,48,28.30
2015,06,27,14,49,28.30
2015,06,27,14,50,28.30
2015,06,27,14,51,28.30
2015,06,27,14,52,28.20
2015,06,27,14,53,28.20
2015,06,27,14,54,28.30
2015,06,27,14,55,28.30
2015,06,27,14,56,28.40
2015,06,27,14,57,28.50
2015,06,27,14,58,28.60
2015,06,27,14,59,28.60
2015,06,27,15,00,28.70
2015,06,27,15,01,28.70
2015,06,27,15,02,28.70
2015,06,27,15,03,28.70
2015,06,27,15,04,28.80
2015,06,27,15,05,28.90
2015,06,27,15,06,28.90
2015,06,27,15,07,29.10
2015,06,27,15,08,29.10
2015,06,27,15,09,29.20
2015,06,27,15,10,29.20
2015,06,27,15,11,29.30
2015,06,27,15,12,29.40
2015,06,27,15,13,29.40
2015,06,27,15,14,29.40
2015,06,27,15,15,29.40
2015,06,27,15,16,29.30
2015,06,27,15,17,29.20
2015,06,27,15,18,29.10
2015,06,27,15,19,28.90
2015,06,27,15,20,28.80
2015,06,27,15,21,28.80
2015,06,27,15,22,28.80
2015,06,27,15,23,28.80
2015,06,27,15,24,28.90
2015,06,27,15,25,28.90
2015,06,27,15,26,29.00
2015,06,27,15,27,29.10
2015,06,27,15,28,29.10
2015,06,27,15,29,29.10
2015,06,27,15,30,29.20
2015,06,27,15,31,29.20
2015,06,27,15,32,29.20
2015,06,27,15,33,29.20
2015,06,27,15,34,29.30
2015,06,27,15,35,29.30
2015,06,27,15,36,29.30
2015,06,27,15,37,29.30
2015,06,27,15,38,29.40
2015,06,27,15,39,29.40
2015,06,27,15,40,29.60
2015,06,27,15,41,29.70
2015,06,27,15,42,29.80
2015,06,27,15,43,29.80
2015,06,27,15,44,29.80
2015,06,27,15,45,29.80
2015,06,27,15,46,29.80
2015,06,27,15,47,29.90
2015,06,27,15,48,30.00
2015,06,27,15,49,30.00
2015,06,27,15,50,29.90
2015,06,27,15,51,29.80
2015,06,27,15,52,29.80
2015,06,27,15,53,29.80
2015,06,27,15,54,29.80
2015,06,27,15,55,29.80
2015,06,27,15,56,29.80
2015,06,27,15,57,29.90
2015,06,27,15,58,29.90
2015,06,27,15,59,30.00
2015,06,27,16,00,30.00
2015,06,27,16,01,30.10
2015,06,27,16,02,30.10
2015,06,27,16,03,30.10
2015,06,27,16,04,30.20
2015,06,27,16,05,30.20
2015,06,27,16,06,30.20
2015,06,27,16,07,30.30
2015,06,27,16,08,30.30
2015,06,27,16,09,30.40
2015,06,27,16,10,30.40
2015,06,27,16,11,30.50
2015,06,27,16,12,30.50
2015,06,27,16,13,30.60
2015,06,27,16,14,30.60
2015,06,27,16,15,30.70
2015,06,27,16,16,30.70
2015,06,27,16,17,30.60
2015,06,27,16,18,30.70
2015,06,27,16,19,30.80
2015,06,27,16,20,30.80
2015,06,27,16,21,30.90
2015,06,27,16,22,30.90
2015,06,27,16,23,31.00
2015,06,27,16,24,31.10
2015,06,27,16,25,31.10
2015,06,27,16,26,31.10
2015,06,27,16,27,31.10
2015,06,27,16,28,31.20
2015,06,27,16,29,31.20
2015,06,27,16,30,31.10
2015,06,27,16,31,31.10
2015,06,27,16,32,31.10
2015,06,27,16,33,31.10
2015,06,27,16,34,31.10
2015,06,27,16,35,31.10
2015,06,27,16,36,31.10
2015,06,27,16,37,31.20
2015,06,27,16,38,31.20
2015,06,27,16,39,31.20
2015,06,27,16,40,31.30
2015,06,27,16,41,31.30
2015,06,27,16,42,31.40
2015,06,27,16,43,31.50
2015,06,27,16,44,31.50
2015,06,27,16,45,31.50
2015,06,27,16,46,31.60
2015,06,27,16,47,31.50
2015,06,27,16,48,31.50
2015,06,27,16,49,31.40
2015,06,27,16,50,31.40
2015,06,27,16,51,31.40
2015,06,27,16,52,31.40
2015,06,27,16,53,31.40
2015,06,27,16,54,31.40
2015,06,27,16,55,31.30
2015,06,27,16,56,31.20
2015,06,27,16,57,31.20
2015,06,27,16,58,31.10
2015,06,27,16,59,31.10
2015,06,27,17,00,31.20
2015,06,27,17,01,31.20
2015,06,27,17,02,31.30
2015,06,27,17,03,31.30
2015,06,27,17,04,31.30
2015,06,27,17,05,31.30
2015,06,27,17,06,31.20
2015,06,27,17,07,31.20
2015,06,27,17,08,31.20
2015,06,27,17,09,31.20
2015,06,27,17,10,31.20
2015,06,27,17,11,31.20
2015,06,27,17,12,31.30
2015,06,27,17,13,31.30
2015,06,27,17,14,31.30
2015,06,27,17,15,31.20
2015,06,27,17,16,31.20
2015,06,27,17,17,31.10
2015,06,27,17,18,31.10
2015,06,27,17,19,31.00